This demonstration page uses our WeatherBlox Daily Observations layout. Learn more.

Left ArrowRight Arrow

Hourly Observations for June 11, 2015

Temp ( °F °C ) Dew Point ( °F °C ) Humidity (%) Winds ( mph kmh ) Pressure ( in mb ) Visibility ( mi km ) Precip ( " mm )
12:51 am 00:51 Clear 76 24.4 57 13.9 52 52 NW 10 17 29.66 1005 10 16 0.00 0.00
1:51 am 01:51 Clear 76 24.4 57 13.9 52 52 WNW 12 19 29.66 1004 10 16 0.00 0.00
2:51 am 02:51 Clear 74 23.3 57 13.9 56 56 WNW 10 17 29.66 1005 10 16 0.00 0.00
3:51 am 03:51 Clear 73 22.8 58 14.4 59 59 WNW 10 17 29.67 1005 10 16 0.00 0.00
4:51 am 04:51 Clear 72 22.2 58 14.4 61 61 NW 9 15 29.69 1005 10 16 0.00 0.00
5:51 am 05:51 Sunny 73 22.8 59 15 62 62 WNW 7 11 29.71 1006 10 16 0.00 0.00
6:51 am 06:51 Sunny 77 25 59 15 54 54 WNW 6 9 29.71 1006 10 16 0.00 0.00
7:51 am 07:51 Sunny 79 26.1 59 15 50 50 NW 6 9 29.72 1007 10 16 0.00 0.00
8:51 am 08:51 Sunny 83 28.3 54 12.2 37 37 W 8 13 29.71 1006 10 16 0.00 0.00
9:51 am 09:51 Partly Cloudy 85 29.4 53 11.7 33 33 VRB 7 11 29.70 1006 10 16 0.00 0.00
10:51 am 10:51 Partly Cloudy 85 29.4 52 11.1 32 32 WNW 6 9 29.69 1006 10 16 0.00 0.00
11:51 am 11:51 Mostly Sunny 90 32.2 51 10.6 26 26 VRB 7 11 29.67 1005 10 16 0.00 0.00
12:51 pm 12:51 Sunny 90 32.2 50 10 25 25 WNW 16 26 29.65 1004 10 16 0.00 0.00
1:51 pm 13:51 Mostly Sunny 90 32.2 46 7.8 22 22 VRB 5 7 29.62 1003 10 16 0.00 0.00
2:51 pm 14:51 Sunny 95 35 45 7.2 18 18 WNW 17 28 29.60 1002 10 16 0.00 0.03
3:51 pm 15:51 Sunny 95 35 42 5.6 16 16 NW 24 39 29.58 1002 10 16 0.00 0.00
4:51 pm 16:51 Sunny 94 34.4 39 3.9 15 15 WNW 23 37 29.58 1002 10 16 0.00 0.00
5:51 pm 17:51 Sunny 92 33.3 39 3.9 16 16 WNW 18 30 29.58 1002 10 16 0.00 0.00
6:51 pm 18:51 Sunny 89 31.7 40 4.4 18 18 WNW 20 31 29.60 1002 10 16 0.00 0.00
7:51 pm 19:51 Clear 86 30 42 5.6 21 21 NW 16 26 29.62 1003 10 16 0.00 0.00
8:51 pm 20:51 Clear 82 27.8 42 5.6 24 24 NW 12 19 29.64 1004 10 16 0.00 0.00
9:51 pm 21:51 Clear 79 26.1 42 5.6 27 27 WNW 10 17 29.66 1004 10 16 0.00 0.00
10:51 pm 22:51 Clear 79 26.1 42 5.6 27 27 WNW 12 19 29.65 1004 10 16 0.00 0.00
11:51 pm 23:51 Clear 76 24.4 43 6.1 31 31 N 8 13 29.65 1004 10 16 0.00 0.00

Powered by AerisWeather